Location: El Azufral
(10.3513°N, 67.1528°W)
Time: 19:35:49
(UTC+00:00)

Cosmos 1151 Rocket - Pass Details

Date: 13 June 2024
Orbit: 588 x 610 km, 82.5° (Epoch: 24 July)

Event Time Altitude Azimuth Distance (km) Brightness Sun altitude
Rises 23:17:23 0° 178° (S) 2,855 6.2 -6.8°
Reaches altitude 10° 23:19:37 10° 175° (S) 1,949 5.3 -7.3°
Maximum altitude 23:23:53 64° 93° (E) 669 3.0 -8.3°
Drops below altitude 10° 23:28:07 10° 12° (NNE) 1,935 5.8 -9.2°
Sets 23:30:20 0° 9° (N) 2,833 6.7 -9.7°
